Regional Weather Roundup
Issued by NWS Sterling, VA

Home | Current Version | Previous Version | Graphics & Text | Print | Product List | Glossary On
Versions: 1 2 3 4 5 6 7 8 9 10 11 12 13 14 15 16 17 18 19 20 21 22 23 24 25 26 27 28 29 30 31 32 33 34 35 36 37 38 39 40 41 42 43 44 45 46 47 48 49 50
000
ASUS41 KLWX 032110
RWRLWX

REGIONAL WEATHER ROUNDUP
NATIONAL WEATHER SERVICE BALTIMORE MD/WASHINGTON DC
400 PM EST SAT DEC 03 2016

Note: "FAIR" indicates few or no clouds below 12,000 feet
with no significant weather and/or obstructions to visibility.
 TC=TEMPERATURE CELSIUS

 * =Non NWS site. Station does not report precipitation (e.g. rain,
    snow, etc.), thunder, or fog.

DCZ001-MDZ009-015-VAZ040>042-051-053>054-032200-
WASHINGTON METRO

CITY           SKY/WX    TMP DP  RH WIND       PRES   REMARKS
WASHINGTON NAT PTCLDY    48  29  47 NW18G24   30.25R
DULLES         PTCLDY    45  27  49 NW14G22   30.25R
QUANTICO       CLEAR     48  27  44 N13G24    30.24R
COLLEGE PARK*  MOCLDY    45  28  53 NW12G18   30.24R
LEESBURG*      CLOUDY    45  32  61 NW10G17   30.26R
MANASSAS*      CLEAR     46  28  49 N12       30.25R
GAITHERSBURG*  CLOUDY    43  27  52 NW15G25   30.27R

$$

MDZ006>007-011-014-032200-
BALTIMORE METRO

CITY           SKY/WX    TMP DP  RH WIND       PRES   REMARKS
BWI AIRPORT    MOCLDY    47  30  51 NW16G23   30.22R
MD SCIENCE CTR   N/A     48  28  46 MISG      30.21R
MARTIN STATE   PTCLDY    48  34  57 W17G26    30.21R
ANNAPOLIS      PTCLDY    50  30  46 W13G20    30.22R
FORT MEADE*    PTCLDY    45  30  57 NW12      30.25R

$$

MDZ012-015-019>023-032200-
MARYLAND EASTERN SHORE

CITY           SKY/WX    TMP DP  RH WIND       PRES   REMARKS
OCEAN CITY     CLEAR     50  29  44 NW15G25   30.16R
SALISBURY      CLEAR     49  30  48 NW13G23   30.18R
BAY BRIDGE AP* CLEAR     48  32  53 NW16G23   30.21R
CAMBRIDGE*     CLEAR     46  32  57 NW9G21    30.20R
EASTON*        CLEAR     48  28  46 NW15G24   30.24R

$$

MDZ017>025-032200-
SOUTHERN MARYLAND

CITY           SKY/WX    TMP DP  RH WIND       PRES   REMARKS
PATUXENT RIVER PTCLDY    48  29  47 NW17      30.21R
ST INIGOES     CLEAR     49  30  48 NW9       30.21R
LEONARDTOWN*   CLEAR     46  30  53 W10G16    30.23R

$$

MDZ003>005-032200-
NORTH CENTRAL MARYLAND

CITY           SKY/WX    TMP DP  RH WIND       PRES   REMARKS
FREDERICK*     CLOUDY    45  32  61 NW14G23   30.27R
HAGERSTOWN APT CLOUDY    43  29  57 W12       30.24R
WESTMINSTER*   CLOUDY    43  28  56 W9        30.20R

$$

MDZ501>502-032200-
WESTERN MARYLAND

CITY           SKY/WX    TMP DP  RH WIND       PRES   REMARKS
OAKLAND*         N/A     27  25  93 W8G17     30.21R WCI  18
CUMBERLAND*    NOT AVBL

$$

VAZ025>031-032200-
SHENANDOAH VALLEY

CITY           SKY/WX    TMP DP  RH WIND       PRES   REMARKS
WINCHESTER*    MOCLDY    39  27  60 NW14      30.26S
FRONT ROYAL*   FAIR      43  28  56 NW8G16    30.24S
LURAY*         FAIR      45  32  61 NW12      30.23S
NEW MARKET*    FAIR      44  26  50 N3        30.23S
STAUNTON*      CLOUDY    45  29  53 CALM      30.24S
WAYNESBORO*    FAIR      44  26  50 CALM      30.22S

$$

WVZ021-048>050-054>055-032200-
EASTERN WEST VIRGINIA PANHANDLE

CITY           SKY/WX    TMP DP  RH WIND       PRES   REMARKS
MARTINSBURG    CLOUDY    42  27  55 W17G25    30.26R
PETERSBURG*    CLOUDY    40  29  64 NW10      30.28S

$$

VAZ036>039-050-032200-
CENTRAL FOOTHILLS

CITY           SKY/WX    TMP DP  RH WIND       PRES   REMARKS
CHARLOTTESVILL PTCLDY    50  29  44 CALM      30.21F
CULPEPER*      PTCLDY    48  31  51 CALM      30.24S
ORANGE*          N/A     50  30  46 CALM      30.24S
GORDONSVILLE*  FAIR      49  29  46 CALM      30.21F
WARRENTON*     FAIR      47  25  41 N7        30.23S

$$

VAZ055>057-032200-
NORTH AND CENTRAL PIEDMONT

CITY           SKY/WX    TMP DP  RH WIND       PRES   REMARKS
FREDERICKSBRG* PTCLDY    49  32  51 N5        30.22F
STAFFORD*      CLEAR     46  30  52 N7        30.27S

$$

NCZ024-NYZ072-PAZ021-071-VAZ022-071-032200-
OTHER REGIONAL OBSERVATIONS

CITY           SKY/WX    TMP DP  RH WIND       PRES   REMARKS
NEW YORK CITY  CLEAR     45  25  45 MISG      30.10R
PHILADELPHIA   MOCLDY    49  31  49 NW17      30.15R
PITTSBURGH     CLOUDY    39  29  67 W8        30.28R
ROANOKE        CLOUDY    43  27  53 NW10      30.27S
RICHMOND       MOCLDY    49  29  46 NW6       30.23R
RALEIGH        MOCLDY    52  27  38 CALM      30.24S

$$

ANZ530>537-032200-
MARINE OBSERVATIONS

STATION/POSITION TIME  TEMP    WIND        PRES
                       AIR SEA DIR/SP/G
                 (UTC) (F)     (DEG/KT/KT) (MB)
THOMAS PT LIGHT  2100   48 50  300/ 18/ 20   N/A
BALT KEY BRIDGE  2048   47     280/ 16/ 18 1022.7R
COVE POINT       2048   48     340/ 16/ 19 1023.6R
LEWISETTA        2048   48 50  320/ 14/ 18 1023.2R
SOLOMONS ISLAND  2048   48 52  320/ 11/ 15   N/A
PINEY POINT      2048          320/ 19/ 21   N/A

$$




USA.gov is the U.S. government's official web portal to all federal, state and local government web resources and services.